Flag for U.S.A. Weather past 2 weeks in Santa Barbara, California, U.S.A.

Now
73 °F

More clouds than sun.


Feels Like: 75 °F
Forecast: 63 / 75 °F
Wind: 5 mph from Southwest

Location: Santa Barbara Municipal Airport

Current Time: Sep 1, 2015 at 11:35:07 AM

Latest Report: Sep 1, 2015 at 10:53 AM


Visibility: 10 mi

Pressure: 29.95 "Hg

Humidity: 69%

Dew point: 62 °F

Location of Santa BarbaraLocation

Historic Weather in Santa Barbara — Graph

°F

Santa Barbara temperature yesterday

Maximum temperature yesterday: 78 °F (at 12:53 PM)
Minimum temperature yesterday: 65 °F (at 4:53 AM)
Average temperature yesterday: 72 °F

Past Weeks' High & Low Weather Summary

 TemperatureHumidityPressure
High92 °F (Aug 29, 6:53 PM)97% (Aug 19, 7:53 AM)29.98 "Hg (Aug 19, 7:53 AM)
Low59 °F (Aug 20, 1:53 AM)29% (Aug 29, 7:53 PM)29.77 "Hg (Aug 30, 6:53 PM)
Average72 °F75%29.89 "Hg
* Reported Aug 17 9:53 AM — Sep 1 9:53 AM, Santa Barbara, Weather by CustomWeather, © 2015

Note: Actual official high and low records may vary slightly from our data, if they occured in-between our weather recording intervals... More about our weather records

Advertising

Santa Barbara weather history for previous 24 hours

 ConditionsComfort  
Time TempWeatherWind HumidityBarometerVisibility
9:53 AM
Tue, Sep 1
72 °FOvercast.No wind71%29.94 "Hg7 mi
8:53 AM68 °FOvercast.3 mph84%29.91 "Hg7 mi
7:53 AM66 °FFog.3 mph90%29.92 "Hg4 mi
6:53 AM67 °FOvercast.No wind81%29.91 "Hg7 mi
5:53 AM67 °FOvercast.No wind81%29.89 "Hg10 mi
4:53 AM67 °FOvercast.3 mph81%29.89 "Hg10 mi
3:53 AM67 °FOvercast.6 mph81%29.89 "Hg10 mi
2:53 AM67 °FPassing clouds.6 mph81%29.88 "Hg10 mi
1:53 AM68 °FOvercast.7 mph82%29.89 "Hg10 mi
12:53 AM69 °FPassing clouds.8 mph81%29.88 "Hg10 mi
11:53 PM
Mon, Aug 31
69 °FClear.7 mph84%29.87 "Hg10 mi
10:53 PM70 °FClear.6 mph81%29.86 "Hg10 mi
9:53 PM71 °FClear.6 mph73%29.85 "Hg10 mi
7:53 PM71 °FSunny.5 mph71%29.82 "Hg10 mi
6:53 PM75 °FSunny.6 mph55%29.83 "Hg10 mi
5:53 PM77 °FSunny.8 mph60%29.84 "Hg10 mi
4:53 PM77 °FSunny.8 mph56%29.85 "Hg10 mi
3:53 PM76 °FSunny.7 mph64%29.86 "Hg10 mi
2:53 PM78 °FSunny.7 mph62%29.88 "Hg10 mi
1:53 PM78 °FSunny.8 mph60%29.89 "Hg10 mi
12:53 PM78 °FSunny.8 mph64%29.90 "Hg10 mi
11:53 AM76 °FSunny.6 mph64%29.90 "Hg10 mi
Weather by CustomWeather, © 2015

See weather overviewHow to use our weather pages